www.pogodaiklimat.ru

Погода и климат >> Архив погоды >> Россия >> Оренбургская область >> Домбаровский


АРХИВ ПОГОДЫ в Домбаровском

Время (UTC), дата Ветер
(напр.,м/с)
 
Видим.   Явления Облачность Т
(С)
Тd
(С)
f
(%)
Тe
(С)
Тes
(С)
Комфортность P
(гПа)
Po
(гПа)
Тmin
(С)
Tmax
(С)
R
(мм)
R24
(мм)
S
(см)
21 12.05 Ю 1 20 км ясно +16.7 +8.8 60 +18 +18 1021.1 988.3
00 13.05 В 1 20 км ясно +15.0 +8.2 64 +16 +16 1021.8 988.7
03 13.05 В 1 20 км 4/0
[Ci sp]
+18.7 +10.0 57 +20 +24 1021.8 989.1 +13.9
06 13.05 ЮВ 1 20 км 4/0
[Ci fib]
+28.2 +9.5 31 +28 +43 жарко 1020.4 988.8
09 13.05 С 1 20 км 8/4 600 м
[Cb calv Ci fib]
+29.8 +7.4 25 +29 +38 жарко 1019.3 987.9
12 13.05 ЮВ 1 20 км {гроза} 8/8 600 м
[Cb calv Ci fib]
+28.0 +8.5 29 +28 +29 жарко 1018.7 987.3
15 13.05 В 4
{11}
20 км 8/5 600 м
[Cb calv Ci sp]
+23.2 +11.6 48 +26 +26 жарко 1019.1 987.1 +31.0
18 13.05 В 3 20 км 9/6 600 м
[Cb cap Ac As Ci sp]
+20.5 +10.6 53 +23 +23 комфорт 1019.2 986.8
21 13.05 СВ 2 20 км 8/4 600 м
[Cb cap Ac As Ci sp]
+19.4 +10.7 57 +21 +21 комфорт 1019.2 986.7
00 14.05 В 1 20 км 3/3 600 м
[Cb cap]
+16.2 +9.9 66 +17 +17 1018.4 985.6
03 14.05 В 2 20 км 3/3 600 м
[Cb calv Ci sp]
+20.5 +9.9 51 +23 +25 комфорт 1017.1 984.8 +14.8
06 14.05 ЮВ 1 20 км 3/1 600 м
[Cu med, cong Ci fib]
+27.7 +8.8 30 +28 +41 жарко 1015.3 983.8
09 14.05 Ю 2 20 км 8/8 870 м
[Cb calv]
+29.5 +6.2 23 +28 +31 жарко 1013.2 981.9
12 14.05 З 5
{11}
20 км гроза без осадков {ливн. осадки} 9/9 870 м
[Cb cap]
+20.0 +11.9 60 +22 +22 комфорт 1015.5 983.2
15 14.05 СЗ 1
{12}
20 км {гроза, ливн. осадки} 9/9 870 м
[Cb cap]
+21.4 +11.6 54 +23 +23 комфорт 1012.8 980.7 +30.7 10
18 14.05 СВ 4
{12}
20 км {гроза, ливн. осадки} 8/0
[Ac lent Ci sp]
+17.5 +12.9 74 +17 +17 1015.2 982.7
21 14.05 В 3 20 км 8/0
[Ci sp]
+14.9 +13.0 88 +14 +14 1015.4 982.5
00 15.05 В 4 20 км 8/3
[Cb cap Ac As Ci sp]
+10.6 +8.0 84 +8 +8 1017.8 984.4
03 15.05 В 5 20 км 8/0
[Ac cast]
+10.7 +7.5 81 +8 +9 1019.0 985.5 +10.4
06 15.05 В 5-10
{11}
20 км 9/6 600 м
[Cb cap Ac As]
+11.0 +7.5 79 +8 +10 1020.3 986.8
09 15.05 В 6-11
{12}
20 км {ливн. осадки} 9/3 600 м
[Cb cap Ac lent Ci fib]
+13.7 +5.1 56 +12 +14 1020.2 987.0
12 15.05 В 5
{12}
20 км {ливн. осадки} 9/0
[Ci sp]
+16.0 -0.1 33 +15 +18 1020.1 987.1
15 15.05 В 4
{11}
20 км 6/0
[Ci sp]
+14.8 -2.4 30 +14 +14 1020.5 987.4 +17.3 0.0
18 15.05 В 3 20 км 8/3 600 м
[Cb cap Ac As]
+11.9 -4.0 33 +11 +11 1021.3 987.8
21 15.05 В 4 20 км 9/0
[Ac As]
+11.3 -4.3 33 +10 +10 1021.5 988.0
00 16.05 В 3 20 км 8/0
[Ac As]
+9.3 -4.8 37 +8 +8 1021.7 987.9
03 16.05 В 4 20 км 8/8 800 м
[Sc]
+9.9 -3.8 38 +8 +8 1022.6 988.8 +9.0
06 16.05 В 5 20 км 8/0
[Ac As Ci fib]
+14.9 -3.3 28 +14 +18 1022.0 988.8
09 16.05 В 4 20 км 8/0
[Ac trans Ci fib]
+19.1 -6.1 18 +19 +25 1020.5 987.8
12 16.05 С 23 20 км 8/0
[Ci sp]
+20.2 -5.4 17 +18 +18 1018.8 986.5
15 16.05 ЮВ 1 20 км 5/0
[Ci sp]
+19.2 -7.5 16 +20 +20 1018.4 985.8 +20.4
18 16.05 В 2 20 км ясно +11.6 -1.9 39 +11 +11 1018.9 985.5
21 16.05 ЮВ 3 20 км 3/0
[Ac trans]
+10.7 -4.0 35 +9 +9 1017.6 984.0
00 17.05 Ю 2 20 км 9/6 600 м
[Cb cap Ac trans]
+12.5 -4.4 30 +12 +12 1015.6 982.4
03 17.05 Ю 3 20 км 9/8 600 м
[Cb cap Ci fib]
+13.1 -1.8 36 +12 +13 1014.8 981.7 +10.6
06 17.05 Ю 1 20 км 9/9 720 м
[Cb cap]
+16.5 +3.4 42 +17 +19 1012.7 980.0
09 17.05 СВ 2 20 км в посл. час ливневой дождь 9/9 720 м
[Cb cap]
+14.9 +10.8 76 +15 +16 1010.7 978.0
12 17.05 ЮЗ 5
{13}
20 км {ливн. осадки} 10/10 700 м
[Cb cap]
+20.9 +10.7 52 +23 +23 комфорт 1007.5 975.5
15 17.05 З 6-11
{13}
20 км 10/10 700 м
[Cb cap]
+19.2 +13.7 70 +20 +20 1007.0 974.9 +23.9 0.9
18 17.05 СЗ 4
{11}
20 км {ливн. осадки} 9/9 720 м
[Cb cap]
+15.1 +10.8 75 +14 +14 1008.0 975.4
21 17.05 С 4 20 км 6/0
[Ac trans]
+9.2 +4.8 74 +6 +6 1009.3 975.9
00 18.05 СЗ 3
{10}
20 км 8/5 600 м
[Sc Ac trans]
+5.8 +2.1 77 +3 +3 1010.4 976.6
03 18.05 С 5 20 км ясно +8.0 +0.4 59 +5 +7 1010.6 977.1 +5.8
06 18.05 С 5-10
{10}
20 км ясно +10.9 -0.7 45 +9 +16 1010.8 977.5
09 18.05 СЗ 4-10
{11}
20 км ясно +14.5 -0.5 36 +14 +24 1009.6 976.8
12 18.05 З 5
{10}
20 км ясно +16.6 -0.4 31 +16 +20 1008.2 975.7
15 18.05 З 5 20 км 3/0
[Ci sp]
+15.3 -0.7 33 +14 +14 1008.3 975.6 +16.9
18 18.05 З 2 20 км ясно +9.7 +0.6 53 +9 +9 1008.8 975.5
21 18.05 ЮЗ 3 20 км 8/4 600 м
[Cb cap Ac trans]
+9.8 +0.3 52 +8 +8 1007.3 974.0
00 19.05 З 3 20 км 9/9 700 м
[Cb cap]
+10.1 +2.8 60 +8 +8 1007.2 974.0
03 19.05 З 3 20 км {ливн. осадки} 8/8 700 м
[Cb cap]
+10.5 +6.1 74 +9 +9 1007.0 973.9 +8.6 0.3
06 19.05 З 5
{10}
20 км {ливн. осадки} 9/9 720 м
[Cb cap]
+11.1 +0.5 48 +9 +9 1008.3 975.2
09 19.05 З 5-10
{12}
20 км 8/0
[Ac As Ci sp]
+14.6 -0.4 36 +13 +18 1007.9 975.2
12 19.05 З 4
{10}
20 км 4/3 600 м
[Cb calv Ci sp]
+16.2 -6.4 21 +16 +19 1007.6 975.0
15 19.05 СЗ 5
{11}
20 км 3/0
[Ci sp]
+13.9 -4.9 27 +13 +13 1008.3 975.4 +16.6
18 19.05 Ю 2 20 км 4/0
[Ac trans]
+6.5 -3.1 50 +5 +5 1009.1 975.4

 

Местоположение метеостанции Домбаровский (Оренбургская область, Россия): широта 50.75 долгота 59.55 высота над уровнем моря 278 м.

В архиве по умолчанию представлена погода в Домбаровском за последнюю неделю. Архивные данные за месяц целиком и за предыдущие месяцы, начиная с января 2011 года, Вы можете получить, выбрав интересующий диапазон дат из раскрывающегося списка и нажав кнопку "Ввод!".


*Определитесь, кто Вы:
робот инопланетянин человек

Внимание! Время в таблицах - всемирное. Для получения местного времени необходимо прибавить поправку, которая равна 5 ч.

Смотрите также архив погоды в соседних городах и на ближайших метеорологических станциях:

Погода в Степном (Актюбинская область, Казахстан) (61 км)
Погода в Комсомольском (Костанайская область, Казахстан) (75 км)
Погода в Орске (Оренбургская область, Россия) (76 км)
Погода в Карабутаке (Актюбинская область, Казахстан) (98 км)
Погода в Зерносовхозе Озерном (Оренбургская область, Россия) (100 км)
Погода в Кос-Истеке (Актюбинская область, Казахстан) (116 км)
Погода в Акжаре (Актюбинская область, Казахстан) (124 км)
Погода в Энергетике (Оренбургская область, Россия) (124 км)
Погода в Айдырля (Оренбургская область, Россия) (135 км)
Погода в Теренсае (Актюбинская область, Казахстан) (151 км)

Пояснения к столбцам:

Ветер - указаны скорость ветра в м/с - средняя за 10 мин, порывы в срок и между сроками (в фигурных скобках) и направление, откуда дует ветер: С - северный, СВ - северо-восточный, В - восточный, ЮВ - юго-восточный, Ю - южный, ЮЗ - юго-западный, З - западный, СЗ - северо-западный.
Видимость - горизонтальная дальность видимости в метрах или километрах. При видимости от 1 до 10 км при отсутствии осадков обычно наблюдается дымка, при ухудшении видимости до 1 км и менее - туман. В сухую погоду видимость может ухудшаться дымом, пылью или мглою.
Явления - указаны атмосферные явления, наблюдавшиеся в срок или в последний час перед сроком; фигурными скобками обозначены явления, наблюдавшиеся между сроками (за 1-3 часа до срока); квадратными скобками обозначены град или гололедные отложения с указанием их диаметра в мм.
Облачность - указаны через наклонную черту общая и нижняя облачность в баллах и высота нижней границы облаков в метрах; квадратными скобками обозначены формы облаков: Ci - перистые, Cs - перисто-слоистые, Cc - перисто-кучевые, Ac - высококучевые, As - высокослоистые, Sc - слоисто-кучевые, Ns - слоисто-дождевые, Cu - кучевые, Cb - кучево-дождевые. Подробнее классификацию облаков см. в Атласе облаков (PDF).
T - Температура воздуха - температура, измеренная на высоте 2 м над землей.
Td - Температура точки росы - температура, при понижении до которой содержащийся в воздухе водяной пар достигнет насыщения.
f - Относительная влажность воздуха - влажноcть воздуха, измеренная на высоте 2 м над землей.
Te - Эффективная температура - температура, которую ощущает одетый по сезону человек в тени. Характеристика душности погоды. При расчете учитывается влияние влажности воздуха и скорости ветра на теплоощущения человека.
Tes - Эффективная температура на солнце - температура, которую ощущает человек, с поправкой на солнечный нагрев. Характеристика знойности погоды. Зависит от высоты солнца над горизонтом, облачности и скорости ветра. Ночью, в пасмурную погоду, а также при ветре 12 м/с и более поправка равна нулю.
P - Атмосферное давление - приведенное к уровню моря атмосферное давление.
Po - Атмосферное давление - измеренное на уровне метеостанции атмосферное давление.
Tmin - Минимальная температура - минимум температуры воздуха на высоте 2 м над землей.
Tmax - Максимальная температура - максимум температуры воздуха на высоте 2 м над землей.
R - Количество осадков - Количество выпавших осадков за период времени, мм. При наведении курсора мыши на число - период времени, за который выпало указанное количество осадков.
R24 - Количество осадков - Количество выпавших осадков за 24 часа, мм.
S - Снежный покров - Высота снежного покрова, см. При наведении курсора мыши на число - состояние снежного покрова и степень покрытия местности в баллах.